Wind_Speed
5 4 4 4 9 11 13 13 13 14 16 16 18 21 23 23 22 23 23 21 20 21 20 16 16 16 19 20 23 24 16 15 14 13 11 12 11 9 8 7 5 5 7
4 5 6 6 10 10 11 10 11 10 11 16 30 24 24 25 28 23 26 20 18 19 20 20 24 19 22 26 22 24 20 15 14 13 12 10 8 8 6 6 6 9 12
5 4 8 9 9 9 11 10 13 11 11 13 17 20 24 27 27 28 25 23 23 22 23 23 21 21 21 20 21 18 17 15 13 13 11 10 7 6 7 9 11 12 15
5 5 8 9 8 8 14 13 11 12 11 13 15 17 18 25 25 23 23 23 24 24 22 23 22 20 18 17 17 16 14 12 12 11 10 7 8 9 10 11 12 13 13
4 6 9 10 9 10 14 13 13 12 13 14 14 14 18 20 22 21 20 22 21 19 18 18 18 18 16 15 15 13 12 12 11 10 10 11 12 10 10 11 9 9 12
4 5 8 11 12 13 15 15 16 13 12 12 14 15 17 20 19 19 19 18 18 18 17 16 15 14 14 15 15 14 13 13 13 12 10 8 8 7 6 7 10 14 17
5 4 7 11 13 14 15 17 18 17 16 15 13 12 14 15 15 16 18 17 15 15 16 16 15 14 13 12 12 12 12 11 10 9 9 6 3 6 9 13 17 21 23
7 6 7 10 13 14 15 16 16 17 17 17 15 14 13 12 15 17 17 17 18 18 17 16 15 14 13 12 12 11 9 9 9 8 5 5 9 13 16 20 24 27 31
9 8 8 10 12 14 15 16 15 15 15 14 14 15 17 17 17 17 19 19 18 18 17 17 16 15 13 12 11 12 11 5 3 6 9 13 17 21 25 29 32 36 38
10 12 10 10 12 14 14 15 16 16 16 16 16 17 18 19 21 21 20 19 19 18 15 14 14 13 12 8 5 5 5 7 10 14 17 21 25 28 31 34 36 38 38
11 14 13 12 12 14 15 15 15 15 17 18 19 19 19 19 19 19 18 18 17 16 15 15 13 9 8 8 8 8 10 13 17 20 23 26 28 31 31 32 33 36 40
14 14 17 15 14 14 15 15 15 15 16 17 17 18 19 18 18 18 17 16 17 17 16 15 12 12 10 9 9 12 16 19 22 25 27 29 31 33 38 40 40 42 47
18 16 17 18 17 16 16 15 14 14 14 16 17 17 18 18 16 14 13 13 15 17 15 13 12 11 11 11 15 18 20 23 27 29 31 33 37 39 39 40 42 46 46
22 20 19 18 20 20 19 18 17 15 14 15 16 17 18 17 15 14 13 12 13 13 15 15 14 13 14 17 21 23 25 29 33 36 38 39 39 39 39 43 49 49 48
23 24 22 20 19 19 19 19 18 17 15 14 16 17 17 17 16 15 14 14 15 17 23 21 19 19 20 24 27 30 32 35 38 42 42 39 42 38 38 45 49 50 44
21 26 25 24 22 21 20 19 20 21 19 18 20 20 20 22 20 19 21 23 23 23 23 24 25 27 28 31 35 41 43 41 43 41 44 44 40 39 33 34 41 46 46
20 20 23 25 24 23 22 22 21 22 23 24 25 26 27 26 26 28 28 26 23 23 24 27 27 31 34 38 39 40 43 37 38 42 44 43 41 33 35 39 44 45 45
23 21 20 19 19 19 19 20 22 22 22 22 26 28 29 29 30 33 32 30 28 27 28 29 32 32 37 40 34 36 40 44 41 43 40 41 37 33 33 36 38 40 39
33 31 28 27 25 23 22 22 22 23 22 23 27 29 30 30 34 39 39 33 33 34 32 32 34 36 38 41 47 48 51 52 45 37 30 32 30 27 28 29 31 34 38
36 39 37 33 33 31 29 27 26 26 26 25 25 27 30 31 38 43 43 40 37 38 38 38 40 42 39 37 41 36 35 38 28 25 21 19 20 24 27 31 33 36 37
35 44 44 38 38 38 36 33 31 28 25 25 23 27 25 33 35 43 44 42 40 42 41 41 41 36 33 33 33 25 23 19 16 16 19 21 24 28 31 34 36 38 39
30 36 40 34 42 46 43 41 36 35 30 32 35 20 22 29 32 34 43 44 43 43 41 38 37 34 27 24 13 10 11 12 12 15 20 24 28 32 37 39 42 43 45
28 26 33 35 42 47 43 42 44 45 47 44 32 30 32 34 34 35 37 41 42 42 40 36 21 17 20 19 10 4 6 13 17 19 22 26 31 35 38 42 45 45 47
22 29 33 33 29 30 41 46 47 50 45 41 43 45 44 43 43 42 42 42 44 42 35 19 9 3 5 4 10 14 14 15 17 20 24 28 32 36 39 43 46 49 48
27 24 33 37 36 34 33 35 40 46 46 48 48 47 47 44 42 42 41 34 29 27 16 5 3 8 11 17 14 13 14 16 19 23 26 30 33 37 42 45 47 46 45
24 26 28 28 32 32 31 34 37 41 43 44 45 44 37 30 29 28 27 24 13 1 3 11 15 19 17 13 12 11 13 16 20 25 29 31 33 35 38 41 44 44 44
Wind_Direction
192 137 133 112 123 128 118 99 88 90 70 104 116 134 138 152 156 152 158 162 171 180 170 184 167 156 165 170 173 167 169 180 182 196 208 210 209 217 220 221 231 240 240
197 146 139 140 131 143 151 128 108 105 87 82 121 98 130 141 129 139 158 142 147 146 166 149 152 152 162 170 178 173 170 187 193 209 199 210 220 220 219 227 230 230 234
212 150 138 147 142 138 152 149 122 114 109 110 105 93 116 127 133 135 139 142 129 134 139 137 139 137 147 164 171 173 183 186 186 199 201 204 201 213 223 224 234 247 254
202 159 146 149 149 139 148 151 143 128 126 123 125 119 109 109 117 122 131 142 145 147 143 147 147 150 155 166 168 172 179 184 190 202 194 184 201 216 227 239 248 260 269
166 174 163 151 147 142 145 147 149 130 130 130 132 131 131 133 135 141 146 148 151 151 156 157 156 154 159 157 160 170 178 186 185 183 186 199 209 227 245 259 270 280 284
132 142 159 163 155 152 152 146 148 140 138 140 139 135 136 140 146 149 147 146 147 146 145 145 144 149 154 158 161 166 164 166 177 185 194 217 230 238 255 282 284 288 294
151 143 150 163 164 161 160 161 162 162 159 158 155 149 144 141 145 150 150 149 146 145 142 139 138 143 146 150 156 166 175 183 192 211 220 208 241 283 285 286 292 295 296
168 155 148 159 165 163 165 166 167 166 165 161 159 158 156 152 149 150 151 149 145 143 143 143 145 149 153 162 172 179 183 177 179 182 192 247 274 284 291 293 295 296 298
180 174 159 156 161 163 161 164 170 172 174 172 169 164 161 161 158 155 151 148 150 152 153 155 158 160 160 156 154 157 163 180 221 258 271 280 288 296 300 302 303 303 306
190 183 178 168 164 157 157 160 165 170 172 168 164 160 156 155 153 154 157 157 160 161 161 160 158 151 145 145 156 187 226 254 269 279 288 296 301 303 304 305 305 306 308
198 192 188 182 177 167 159 155 156 160 161 162 163 163 162 162 163 164 164 165 169 169 164 163 166 177 195 201 222 251 276 285 292 299 303 303 304 305 306 307 305 303 303
199 198 196 194 189 182 172 164 163 164 167 170 171 171 170 169 169 169 173 179 183 185 184 189 198 198 214 246 280 291 295 300 305 306 308 309 309 308 307 307 305 305 304
202 203 202 199 200 198 191 182 177 174 172 174 175 177 176 178 182 186 184 188 196 204 207 202 206 235 261 281 283 287 292 300 307 308 306 305 304 308 308 302 296 300 300
208 202 208 209 205 207 206 201 197 192 190 187 187 187 189 194 198 202 206 206 207 209 201 218 237 252 265 272 277 286 293 299 304 303 302 302 303 304 300 299 300 304 304
218 212 211 213 214 214 217 219 217 211 206 205 203 202 204 205 207 212 215 213 212 215 218 235 248 255 265 274 282 287 294 298 303 299 297 299 300 296 296 299 305 305 309
233 220 215 219 217 218 219 221 220 220 218 215 210 209 208 211 216 213 210 213 217 223 231 242 257 263 274 281 289 295 295 292 295 293 292 292 294 292 299 308 308 309 310
228 224 218 222 224 225 226 226 224 224 223 222 220 220 222 224 219 214 216 218 226 238 246 250 264 277 281 281 282 289 296 291 287 287 287 288 286 287 307 320 316 313 315
219 218 216 214 216 217 217 220 224 227 231 235 233 231 231 231 225 218 217 222 237 241 252 262 268 278 287 289 290 291 287 289 286 283 282 291 298 317 322 313 317 316 316
224 223 223 225 230 229 227 223 222 223 225 227 234 233 232 232 228 219 221 232 242 244 253 263 265 282 292 289 287 288 297 296 284 283 303 327 329 319 322 322 321 324 324
230 228 225 229 228 228 227 226 222 221 223 222 236 235 232 230 226 224 226 234 245 250 259 268 277 284 287 291 287 286 291 301 320 333 328 334 338 340 337 335 334 331 330
233 230 226 227 234 235 231 227 225 221 220 220 215 247 230 230 229 231 234 243 248 254 266 277 286 286 288 285 282 297 314 316 322 347 356 356 353 354 353 349 344 339 334
225 229 216 229 232 239 232 231 229 229 219 218 235 236 229 232 237 239 237 243 254 263 272 279 281 284 280 283 321 320 325 344 6 21 25 24 21 14 7 360 352 343 335
233 234 234 242 236 233 239 227 225 229 230 234 232 232 234 236 238 243 245 251 258 265 272 272 265 274 279 286 290 315 66 63 54 43 31 18 9 6 4 1 355 346 336
238 235 228 232 238 237 244 230 226 227 234 230 232 235 237 241 245 248 250 255 259 266 265 256 293 328 260 159 115 102 80 52 33 19 10 5 1 359 357 356 353 347 338
247 247 241 242 235 242 238 238 237 231 231 230 231 236 240 243 246 248 251 258 264 271 271 4 170 153 141 127 108 77 50 32 18 7 360 357 356 356 356 354 349 343 333
245 250 241 241 236 246 249 245 235 234 234 235 237 238 238 240 244 243 241 247 249 224 172 174 156 145 130 111 84 54 28 16 7 1 357 352 352 352 349 347 347 343 336
Height
3100 3099 3099 3098 3098 3098 3097 3095 3094 3092 3091 3088 3089 3091 3093 3095 3100 3105 3109 3113 3116 3119 3120 3123 3129 3133 3137 3143 3149 3154 3157 3162 3165 3168 3171 3174 3175 3176 3178 3179 3179 3179 3181
3100 3100 3100 3099 3100 3100 3100 3100 3099 3098 3097 3096 3094 3095 3097 3100 3103 3107 3112 3115 3118 3121 3124 3126 3129 3134 3139 3145 3150 3154 3159 3163 3165 3168 3170 3172 3174 3176 3177 3177 3177 3179 3181
3100 3100 3100 3100 3101 3102 3102 3102 3102 3102 3102 3103 3104 3103 3103 3107 3109 3112 3116 3119 3123 3126 3128 3132 3136 3140 3145 3150 3153 3157 3160 3163 3165 3168 3169 3171 3172 3173 3174 3176 3178 3178 3178
3100 3100 3101 3101 3101 3104 3105 3105 3106 3106 3107 3108 3109 3111 3112 3112 3114 3117 3120 3123 3127 3130 3133 3136 3139 3143 3148 3152 3155 3157 3161 3164 3166 3168 3168 3168 3171 3173 3175 3176 3176 3176 3175
3100 3101 3102 3103 3103 3105 3107 3108 3109 3110 3111 3112 3114 3116 3118 3119 3121 3125 3126 3128 3131 3133 3137 3140 3143 3146 3150 3152 3155 3158 3160 3163 3164 3166 3168 3171 3173 3174 3174 3174 3174 3173 3171
3100 3101 3102 3104 3105 3106 3108 3110 3112 3114 3115 3116 3118 3120 3122 3124 3126 3128 3130 3133 3136 3138 3141 3142 3144 3147 3150 3153 3156 3158 3161 3163 3166 3168 3170 3171 3171 3172 3173 3172 3170 3169 3166
3101 3102 3103 3104 3106 3107 3109 3112 3114 3116 3118 3119 3121 3122 3124 3126 3128 3131 3133 3135 3137 3139 3141 3143 3146 3149 3152 3154 3157 3160 3163 3166 3168 3169 3170 3171 3171 3171 3171 3170 3167 3165 3163
3101 3102 3103 3105 3107 3108 3110 3112 3114 3117 3119 3121 3123 3124 3126 3127 3130 3133 3136 3138 3140 3143 3146 3148 3150 3153 3156 3159 3161 3163 3165 3167 3169 3169 3169 3169 3170 3169 3168 3166 3164 3160 3158
3101 3102 3104 3105 3107 3109 3110 3112 3115 3117 3120 3122 3124 3126 3128 3130 3132 3135 3138 3141 3144 3147 3149 3152 3155 3157 3159 3161 3162 3164 3166 3167 3167 3167 3168 3167 3167 3166 3164 3161 3157 3154 3150
3100 3102 3104 3106 3108 3109 3111 3113 3115 3118 3120 3122 3124 3127 3129 3132 3134 3137 3140 3143 3146 3149 3151 3153 3155 3156 3158 3160 3162 3164 3165 3166 3166 3166 3165 3164 3162 3160 3156 3154 3150 3146 3142
3099 3101 3104 3105 3108 3110 3112 3114 3116 3119 3121 3124 3126 3128 3130 3133 3136 3138 3141 3143 3146 3149 3151 3153 3156 3158 3160 3161 3162 3163 3163 3163 3163 3162 3160 3158 3156 3153 3150 3148 3144 3139 3134
3096 3100 3102 3105 3108 3110 3112 3115 3117 3119 3121 3124 3127 3129 3132 3135 3137 3140 3142 3145 3147 3150 3152 3154 3156 3157 3158 3159 3159 3159 3159 3159 3158 3156 3154 3152 3149 3146 3142 3138 3135 3130 3125
3093 3097 3100 3103 3106 3109 3112 3114 3116 3119 3121 3124 3127 3130 3132 3135 3138 3140 3142 3144 3146 3148 3150 3152 3154 3154 3155 3156 3155 3155 3154 3153 3152 3150 3148 3144 3140 3137 3133 3128 3124 3118 3113
3089 3093 3097 3100 3103 3106 3109 3112 3114 3117 3120 3122 3125 3128 3131 3134 3136 3138 3140 3142 3144 3146 3148 3149 3149 3150 3150 3150 3149 3148 3148 3147 3145 3142 3139 3135 3131 3126 3122 3118 3113 3107 3101
3085 3089 3092 3096 3099 3103 3106 3110 3113 3116 3119 3122 3124 3127 3129 3132 3134 3136 3138 3139 3141 3142 3143 3144 3144 3144 3144 3143 3142 3141 3140 3138 3136 3132 3128 3126 3122 3118 3115 3109 3103 3098 3091
3081 3084 3088 3091 3095 3098 3102 3105 3109 3112 3116 3118 3121 3124 3126 3127 3130 3132 3133 3135 3136 3138 3139 3139 3138 3139 3139 3138 3136 3133 3132 3129 3127 3123 3119 3115 3111 3107 3101 3097 3093 3088 3081
3078 3081 3084 3087 3090 3093 3097 3100 3104 3107 3110 3113 3115 3118 3119 3122 3124 3126 3128 3130 3132 3134 3134 3134 3134 3134 3134 3132 3130 3128 3124 3121 3116 3112 3108 3103 3098 3093 3090 3087 3085 3079 3073
3074 3078 3081 3084 3087 3090 3092 3095 3098 3101 3104 3107 3109 3112 3114 3116 3118 3121 3123 3125 3126 3127 3128 3128 3128 3127 3126 3123 3120 3117 3113 3109 3105 3102 3097 3094 3089 3084 3083 3079 3074 3070 3065
3068 3072 3075 3079 3083 3086 3088 3090 3093 3095 3098 3100 3101 3105 3107 3110 3113 3114 3116 3118 3119 3120 3121 3120 3120 3118 3116 3113 3111 3107 3103 3098 3093 3090 3088 3084 3081 3078 3075 3071 3067 3061 3054
3060 3065 3068 3072 3075 3078 3081 3085 3087 3089 3091 3094 3094 3097 3100 3103 3105 3108 3109 3111 3111 3112 3113 3111 3111 3109 3106 3103 3100 3097 3093 3090 3084 3084 3083 3080 3076 3072 3068 3063 3058 3052 3046
3050 3053 3060 3063 3067 3070 3073 3076 3080 3083 3085 3087 3089 3087 3094 3094 3096 3098 3102 3102 3103 3104 3103 3103 3101 3099 3096 3093 3091 3088 3087 3083 3081 3078 3077 3074 3071 3067 3063 3057 3050 3043 3036
3042 3044 3049 3053 3057 3059 3063 3068 3073 3077 3078 3079 3077 3083 3086 3087 3089 3090 3092 3093 3094 3094 3092 3092 3091 3089 3087 3083 3083 3082 3082 3079 3077 3075 3073 3070 3066 3062 3057 3052 3044 3037 3030
3037 3039 3042 3045 3047 3050 3052 3056 3061 3066 3066 3067 3073 3076 3077 3078 3080 3081 3082 3083 3082 3081 3081 3080 3080 3079 3077 3080 3077 3077 3077 3076 3074 3072 3069 3066 3062 3057 3050 3044 3038 3030 3022
3029 3031 3032 3034 3037 3039 3042 3046 3049 3051 3054 3060 3064 3064 3066 3068 3069 3070 3071 3072 3072 3072 3071 3071 3069 3073 3076 3075 3073 3075 3074 3073 3071 3069 3067 3062 3057 3051 3045 3039 3032 3024 3016
3022 3023 3024 3025 3028 3031 3033 3035 3038 3043 3047 3048 3051 3054 3056 3058 3059 3060 3062 3064 3065 3063 3064 3066 3068 3070 3072 3072 3073 3072 3072 3071 3069 3066 3062 3057 3051 3046 3040 3034 3028 3021 3011
3013 3014 3015 3016 3017 3021 3024 3027 3030 3034 3037 3040 3043 3045 3047 3049 3052 3055 3054 3053 3055 3058 3056 3061 3064 3068 3070 3070 3069 3070 3070 3069 3067 3062 3057 3051 3046 3042 3038 3033 3025 3015 3005